Location: Julian California
(33.0790°N, 116.6010°W)
Time: 17:00:48
(UTC-07:00)

Cosmos 1844 - Pass Details

Date: 14 June 2018
Orbit: 824 x 866 km, 70.9° (Epoch: 19 October)

Event Time Altitude Azimuth Distance (km) Brightness Sun altitude
Exits shadow 22:51:04 42° 67° (ENE) 1,190 4.3 -27.2°
Drops below altitude 10° 22:55:15 10° 32° (NNE) 2,480 6.4 -27.7°
Sets 22:57:47 0° 28° (NNE) 3,426 7.3 -27.9°
